sat.trackr.live / text

‹ back to catalog

NILESAT 301

NORAD 52817 · 2022-061A

PAYLOAD ACTIVE UNKNOWN

§ Identity

Operator
Country
EGYP
Launch date
2022-06-08
Launch site
AFETR
Launch vehicle
Mass (kg)
RCS (m²)

Purposes: comms

External: N2YO · Heavens-Above · Gunter

§ Orbital elements

Epoch: 2026-09-20T03:12:05.803200Z

Period
1,436.10 min
Inclination
0.0594°
Eccentricity
0.0001373
Mean motion
1.00271352 rev/d
Perigee alt
35,780.9 km
Apogee alt
35,792.5 km
Semi-major
42,164.9 km
B*
0.0000e+0
RAAN
349.6462°
Arg perigee
169.0122°
Mean anomaly
241.3746°
Rev number
1,568

§ Raw data

NILESAT 3011 52817U 22061A   26263.13340050 -.00000062  00000+0  00000+0 0  99962 52817   0.0594 349.6462 0001373 169.0122 241.3746  1.00271352 15680

JSON: /api/v1/satellites/52817 · /tle

For live sub-satellite position, see the globe view (requires WebGL).

§ Visibility from observer

Set your observer location to see the next 7 days of passes ≥ 10°. The values pass through the URL so the page stays shareable.

No JS? Fill the form by hand. The geolocation button needs JavaScript.